Location: Milton Keynes
(52.0316°N, 0.7531°W)
Time: 21:30:32
(UTC+01:00)

ISS - Visible Passes

Search period start: 24 September 2022 00:00
Search period end: 04 October 2022 00:00
Orbit: 414 x 417 km, 51.6° (Epoch: 24 September)

Date Brightness Start Highest point End Pass type
(mag) Time Alt. Az. Time Alt. Az. Time Alt. Az.
24 Sep -3.8 20:20:12 10° W 20:23:35 86° S 20:25:11 29° E visible
24 Sep -1.2 21:56:57 10° W 21:58:03 19° W 21:58:03 19° W visible
25 Sep -3.8 19:31:34 10° W 19:34:57 84° S 19:38:20 10° E visible
25 Sep -3.3 21:08:18 10° W 21:11:13 56° WSW 21:11:13 56° WSW visible
26 Sep -3.8 20:19:39 10° W 20:23:01 76° S 20:24:23 33° ESE visible
26 Sep -0.9 21:56:31 10° W 21:57:16 15° W 21:57:16 15° W visible
27 Sep -3.7 19:30:59 10° W 19:34:22 84° S 19:37:33 11° E visible
27 Sep -2.6 21:07:45 10° W 21:10:25 37° SW 21:10:25 37° SW visible
28 Sep -3.3 20:19:03 10° W 20:22:20 53° SSW 20:23:36 31° SE visible
28 Sep -0.5 21:56:25 10° WSW 21:56:29 10° WSW 21:56:29 10° WSW visible
29 Sep -3.5 19:30:21 10° W 19:33:41 66° SSW 19:36:48 12° ESE visible
29 Sep -1.8 21:07:21 10° W 21:09:41 22° SW 21:09:41 22° SW visible
30 Sep -2.4 20:18:28 10° W 20:21:29 31° SSW 20:22:55 22° SSE visible
01 Oct -2.8 19:29:39 10° W 19:32:52 42° SSW 19:36:03 10° SE visible
01 Oct -1.0 21:07:44 10° WSW 21:08:55 11° SW 21:09:05 11° SW visible
02 Oct -1.3 20:18:10 10° W 20:20:25 17° SW 20:22:27 11° S visible
03 Oct -1.7 19:29:04 10° W 19:31:51 24° SSW 19:34:36 10° SSE visible
